KG7KID-6 Weather Reports


Display with metric or nautical units.
time (UTC)temp
F
wind
direction
speed
MPH
gust
MPH
rain 1hr
in
rain 24hr
in
rain mn
in
humidity
%
barometer
mb
20210622144731 80 0 0.0 2.0 0.00 0.00 0.00 19 932.5
20210622144646 80 0 0.0 3.0 0.00 0.00 0.00 19 932.6
20210622144346 80 0 0.0 3.0 0.00 0.00 0.00 19 932.6
20210622144244 80 275 1.0 3.0 0.00 0.00 0.00 20 932.7
20210622144214 80 0 0.0 3.0 0.00 0.00 0.00 19 932.6
20210622143755 80 275 1.0 3.0 0.00 0.00 0.00 20 932.7
20210622143715 80 275 1.0 3.0 0.00 0.00 0.00 20 932.7
20210622143547 79 0 0.0 2.0 0.00 0.00 0.00 20 932.8
20210622143214 79 0 0.0 2.0 0.00 0.00 0.00 20 932.8
20210622143116 79 0 0.0 1.0 0.00 0.00 0.00 20 932.8
20210622142754 79 0 0.0 1.0 0.00 0.00 0.00 20 932.8
20210622142714 79 0 0.0 1.0 0.00 0.00 0.00 20 932.8
20210622142253 78 0 0.0 1.0 0.00 0.00 0.00 21 932.8
20210622142214 78 0 0.0 1.0 0.00 0.00 0.00 21 932.8
20210622142038 77 0 0.0 1.0 0.00 0.00 0.00 21 932.8
20210622141714 77 0 0.0 1.0 0.00 0.00 0.00 21 932.8
20210622141654 77 0 0.0 1.0 0.00 0.00 0.00 22 932.8
20210622141302 77 0 0.0 1.0 0.00 0.00 0.00 22 932.8
20210622141215 77 0 0.0 1.0 0.00 0.00 0.00 22 932.8
20210622140803 75 0 0.0 2.0 0.00 0.00 0.00 22 932.8
20210622140715 75 0 0.0 2.0 0.00 0.00 0.00 22 932.8
20210622140629 74 0 0.0 4.0 0.00 0.00 0.00 23 932.7
20210622140303 74 0 0.0 4.0 0.00 0.00 0.00 23 932.7
20210622140214 74 0 0.0 4.0 0.00 0.00 0.00 23 932.7
20210622135214 73 28 1.0 4.0 0.00 0.00 0.00 24 932.8
20210622135122 72 28 1.0 4.0 0.00 0.00 0.00 24 932.7
20210622134744 72 28 1.0 4.0 0.00 0.00 0.00 24 932.7
20210622134714 72 28 1.0 4.0 0.00 0.00 0.00 24 932.7
20210622134034 71 28 1.0 4.0 0.00 0.00 0.00 24 932.8
20210622133753 71 28 1.0 4.0 0.00 0.00 0.00 24 932.8
20210622133714 71 28 1.0 4.0 0.00 0.00 0.00 24 932.8
20210622133529 70 27 2.0 4.0 0.00 0.00 0.00 25 932.7
20210622133215 70 27 2.0 4.0 0.00 0.00 0.00 25 932.7
20210622132714 70 29 1.0 4.0 0.00 0.00 0.00 25 932.7
20210622131914 69 24 2.0 7.0 0.00 0.00 0.00 25 932.7
20210622131853 68 21 2.0 7.0 0.00 0.00 0.00 25 932.7
20210622131511 68 21 2.0 7.0 0.00 0.00 0.00 25 932.7
20210622131413 68 21 2.0 7.0 0.00 0.00 0.00 25 932.7
20210622130914 68 19 3.0 6.0 0.00 0.00 0.00 26 932.7
20210622130751 67 36 2.0 6.0 0.00 0.00 0.00 26 932.6
20210622130414 67 36 2.0 6.0 0.00 0.00 0.00 26 932.6
20210622130315 67 31 2.0 4.0 0.00 0.00 0.00 26 932.6
20210622125950 67 31 2.0 4.0 0.00 0.00 0.00 26 932.6
20210622125915 67 31 2.0 4.0 0.00 0.00 0.00 26 932.6
20210622125837 66 15 2.0 7.0 0.00 0.00 0.00 27 932.6
20210622125459 66 15 2.0 7.0 0.00 0.00 0.00 27 932.6
20210622125415 66 15 2.0 7.0 0.00 0.00 0.00 27 932.6
20210622124954 66 18 3.0 7.0 0.00 0.00 0.00 27 932.5
20210622124913 66 18 3.0 7.0 0.00 0.00 0.00 27 932.5
20210622124755 65 7 2.0 4.0 0.00 0.00 0.00 27 932.5
20210622124449 65 7 2.0 4.0 0.00 0.00 0.00 27 932.5
20210622124415 65 7 2.0 4.0 0.00 0.00 0.00 27 932.5
20210622123914 65 4 1.0 5.0 0.00 0.00 0.00 27 932.6
20210622123842 65 4 2.0 5.0 0.00 0.00 0.00 27 932.6
20210622123445 65 4 2.0 5.0 0.00 0.00 0.00 27 932.6
20210622123414 65 4 2.0 5.0 0.00 0.00 0.00 27 932.6
20210622123158 65 5 3.0 5.0 0.00 0.00 0.00 27 932.5
20210622122811 65 5 3.0 5.0 0.00 0.00 0.00 27 932.5
20210622122756 65 11 3.0 7.0 0.00 0.00 0.00 27 932.5
20210622122405 65 11 3.0 7.0 0.00 0.00 0.00 27 932.5
20210622122312 65 11 3.0 7.0 0.00 0.00 0.00 27 932.5
20210622121900 66 17 3.0 8.0 0.00 0.00 0.00 27 932.4
20210622121811 66 17 3.0 8.0 0.00 0.00 0.00 27 932.4
20210622121737 66 12 4.0 8.0 0.00 0.00 0.00 26 932.3
20210622121424 66 12 4.0 8.0 0.00 0.00 0.00 26 932.3
20210622121311 66 12 4.0 8.0 0.00 0.00 0.00 26 932.3
20210622120723 67 6 3.0 7.0 0.00 0.00 0.00 25 932.2
20210622120415 67 6 3.0 7.0 0.00 0.00 0.00 25 932.2
20210622120311 67 6 3.0 7.0 0.00 0.00 0.00 25 932.2
20210622120159 67 12 4.0 7.0 0.00 0.00 0.00 25 932.1
20210622115855 67 12 4.0 7.0 0.00 0.00 0.00 25 932.1
20210622115811 67 12 4.0 7.0 0.00 0.00 0.00 25 932.1
20210622115235 67 18 4.0 6.0 0.00 0.00 0.00 25 932.1
20210622114905 67 18 4.0 6.0 0.00 0.00 0.00 25 932.1
20210622114832 67 18 3.0 6.0 0.00 0.00 0.00 26 931.9
20210622114811 67 18 4.0 6.0 0.00 0.00 0.00 25 932.1
20210622114411 67 18 3.0 6.0 0.00 0.00 0.00 26 931.9
20210622114312 67 14 2.0 5.0 0.00 0.00 0.00 25 931.9
20210622113934 67 14 1.0 5.0 0.00 0.00 0.00 25 931.9
20210622113853 67 14 2.0 5.0 0.00 0.00 0.00 25 931.9
20210622113812 67 14 2.0 5.0 0.00 0.00 0.00 25 931.9
20210622113414 67 14 1.0 5.0 0.00 0.00 0.00 25 931.9
20210622113311 67 14 1.0 5.0 0.00 0.00 0.00 25 931.9
20210622113226 67 15 3.0 5.0 0.00 0.00 0.00 25 931.9
20210622112848 67 15 3.0 5.0 0.00 0.00 0.00 25 931.9
20210622112831 67 25 2.0 4.0 0.00 0.00 0.00 25 931.9
20210622112811 67 15 3.0 5.0 0.00 0.00 0.00 25 931.9
20210622112352 67 25 2.0 4.0 0.00 0.00 0.00 25 931.9
20210622112314 67 25 2.0 4.0 0.00 0.00 0.00 25 931.9
20210622112250 67 25 2.0 4.0 0.00 0.00 0.00 26 931.9
20210622111856 67 25 2.0 4.0 0.00 0.00 0.00 26 931.9
20210622111813 67 24 2.0 4.0 0.00 0.00 0.00 26 931.8
20210622111347 67 24 2.0 4.0 0.00 0.00 0.00 26 931.8
20210622111311 67 24 2.0 4.0 0.00 0.00 0.00 26 931.8
20210622110911 67 24 1.0 3.0 0.00 0.00 0.00 25 931.7
20210622110527 67 24 1.0 3.0 0.00 0.00 0.00 25 931.7
20210622110433 67 24 1.0 3.0 0.00 0.00 0.00 25 931.7
20210622110018 68 25 1.0 3.0 0.00 0.00 0.00 24 931.6
20210622105547 69 25 1.0 3.0 0.00 0.00 0.00 23 931.6
20210622105521 68 25 1.0 3.0 0.00 0.00 0.00 24 931.6
20210622105507 69 25 1.0 3.0 0.00 0.00 0.00 23 931.6
20210622105433 68 25 1.0 3.0 0.00 0.00 0.00 24 931.6
20210622104948 70 0 0.0 2.0 0.00 0.00 0.00 23 931.5
20210622104932 69 25 1.0 3.0 0.00 0.00 0.00 23 931.6
20210622104433 70 0 0.0 2.0 0.00 0.00 0.00 23 931.5
20210622103947 70 0 0.0 4.0 0.00 0.00 0.00 23 931.5
20210622103542 70 0 0.0 4.0 0.00 0.00 0.00 23 931.5
20210622103432 70 0 0.0 4.0 0.00 0.00 0.00 23 931.5
20210622102926 70 23 3.0 7.0 0.00 0.00 0.00 23 931.3
20210622102522 70 23 3.0 7.0 0.00 0.00 0.00 23 931.3
20210622102433 70 23 3.0 7.0 0.00 0.00 0.00 23 931.3
20210622101832 70 17 4.0 7.0 0.00 0.00 0.00 23 931.2
20210622101551 70 17 4.0 7.0 0.00 0.00 0.00 23 931.2
20210622101432 70 17 4.0 7.0 0.00 0.00 0.00 23 931.2
20210622100844 72 16 3.0 7.0 0.00 0.00 0.00 22 931.1
20210622100526 72 16 3.0 7.0 0.00 0.00 0.00 22 931.1
20210622100433 72 16 3.0 7.0 0.00 0.00 0.00 22 931.1
20210622100010 72 16 4.0 8.0 0.00 0.00 0.00 22 931.1
20210622095523 72 16 4.0 8.0 0.00 0.00 0.00 22 931.1
20210622095434 72 16 4.0 8.0 0.00 0.00 0.00 22 931.1
20210622094911 72 19 5.0 8.0 0.00 0.00 0.00 22 931.1
20210622094512 72 19 5.0 8.0 0.00 0.00 0.00 22 931.1
20210622094432 72 19 5.0 8.0 0.00 0.00 0.00 22 931.1
20210622093932 72 23 4.0 8.0 0.00 0.00 0.00 22 931.2
20210622093526 72 23 4.0 8.0 0.00 0.00 0.00 22 931.2
20210622093433 72 23 4.0 8.0 0.00 0.00 0.00 22 931.2
20210622092932 71 19 4.0 8.0 0.00 0.00 0.00 22 931.2
20210622092855 71 15 5.0 8.0 0.00 0.00 0.00 22 931.1
20210622092524 71 15 5.0 8.0 0.00 0.00 0.00 22 931.1
20210622092433 71 15 5.0 8.0 0.00 0.00 0.00 22 931.1
20210622091937 71 21 3.0 5.0 0.00 0.00 0.00 22 931.2
20210622091556 71 21 3.0 5.0 0.00 0.00 0.00 22 931.2
20210622091432 71 21 3.0 5.0 0.00 0.00 0.00 22 931.2
20210622091133 71 16 3.0 7.0 0.00 0.00 0.00 22 931.2
20210622090745 71 7 3.0 7.0 0.00 0.00 0.00 21 931.1
20210622090737 71 16 3.0 7.0 0.00 0.00 0.00 22 931.2
20210622090658 71 16 3.0 7.0 0.00 0.00 0.00 22 931.2
20210622090236 71 7 3.0 7.0 0.00 0.00 0.00 21 931.1
20210622090158 71 7 3.0 7.0 0.00 0.00 0.00 21 931.1
20210622090149 72 17 3.0 7.0 0.00 0.00 0.00 21 931.1
20210622085747 72 23 4.0 8.0 0.00 0.00 0.00 21 931.1
20210622085730 72 17 3.0 7.0 0.00 0.00 0.00 21 931.1
20210622085658 72 17 3.0 7.0 0.00 0.00 0.00 21 931.1
20210622085233 72 23 4.0 8.0 0.00 0.00 0.00 21 931.1
20210622085158 72 23 4.0 8.0 0.00 0.00 0.00 21 931.1
20210622085108 72 17 5.0 9.0 0.00 0.00 0.00 21 931.1
20210622084740 72 18 6.0 9.0 0.00 0.00 0.00 21 931.0
20210622084659 72 17 5.0 9.0 0.00 0.00 0.00 21 931.1
20210622084159 72 18 6.0 9.0 0.00 0.00 0.00 21 931.0
20210622084015 72 18 7.0 9.0 0.00 0.00 0.00 21 930.8
20210622083736 72 18 7.0 9.0 0.00 0.00 0.00 21 930.8
20210622083658 72 18 7.0 9.0 0.00 0.00 0.00 21 930.8
20210622083620 72 19 6.0 9.0 0.00 0.00 0.00 22 930.9
20210622083230 72 19 6.0 9.0 0.00 0.00 0.00 22 930.9
20210622083158 72 19 6.0 9.0 0.00 0.00 0.00 22 930.9
20210622083145 72 16 6.0 9.0 0.00 0.00 0.00 22 930.8
20210622082658 72 16 6.0 9.0 0.00 0.00 0.00 22 930.8
20210622082237 72 24 4.0 9.0 0.00 0.00 0.00 22 930.8
20210622082158 72 24 4.0 9.0 0.00 0.00 0.00 22 930.8
20210622082104 72 18 6.0 9.0 0.00 0.00 0.00 20 930.8
20210622081716 72 18 6.0 8.0 0.00 0.00 0.00 21 930.9
20210622081659 72 18 6.0 9.0 0.00 0.00 0.00 20 930.8
20210622081401 72 12 4.0 8.0 0.00 0.00 0.00 20 930.9
20210622081245 72 18 6.0 8.0 0.00 0.00 0.00 21 930.9
20210622081159 72 18 6.0 8.0 0.00 0.00 0.00 21 930.9
20210622080847 73 15 5.0 8.0 0.00 0.00 0.00 20 930.9
20210622080753 72 12 4.0 8.0 0.00 0.00 0.00 20 930.9
20210622080658 72 12 4.0 8.0 0.00 0.00 0.00 20 930.9
20210622080229 73 15 5.0 8.0 0.00 0.00 0.00 20 930.9
20210622080158 73 15 5.0 8.0 0.00 0.00 0.00 20 930.9
20210622080154 73 11 5.0 9.0 0.00 0.00 0.00 20 930.9
20210622075743 73 11 5.0 9.0 0.00 0.00 0.00 20 930.9
20210622075659 73 11 5.0 9.0 0.00 0.00 0.00 20 930.9
20210622075236 73 17 5.0 9.0 0.00 0.00 0.00 20 930.9
20210622075158 73 17 5.0 9.0 0.00 0.00 0.00 20 930.9
20210622075108 74 17 5.0 9.0 0.00 0.00 0.00 20 930.9
20210622074732 74 17 7.0 9.0 0.00 0.00 0.00 20 930.9
20210622074658 74 17 5.0 9.0 0.00 0.00 0.00 20 930.9
20210622074231 74 17 7.0 9.0 0.00 0.00 0.00 20 930.9
20210622074158 74 17 7.0 9.0 0.00 0.00 0.00 20 930.9
20210622074111 73 5 3.0 9.0 0.00 0.00 0.00 20 930.8
20210622073838 74 15 4.0 9.0 0.00 0.00 0.00 20 930.8
20210622073756 73 5 3.0 9.0 0.00 0.00 0.00 20 930.8
20210622073658 73 5 3.0 9.0 0.00 0.00 0.00 20 930.8
20210622073240 74 17 4.0 7.0 0.00 0.00 0.00 20 930.8
20210622073159 74 15 4.0 9.0 0.00 0.00 0.00 20 930.8
20210622072740 74 19 3.0 8.0 0.00 0.00 0.00 20 930.8
20210622072659 74 17 4.0 7.0 0.00 0.00 0.00 20 930.8
20210622072235 74 19 3.0 8.0 0.00 0.00 0.00 20 930.8
20210622072158 74 19 3.0 8.0 0.00 0.00 0.00 20 930.8
20210622072137 74 17 3.0 8.0 0.00 0.00 0.00 19 930.9
20210622071658 74 17 3.0 8.0 0.00 0.00 0.00 19 930.9
20210622071009 75 12 4.0 9.0 0.00 0.00 0.00 19 930.9
20210622070602 75 12 4.0 9.0 0.00 0.00 0.00 19 930.9
20210622070524 75 12 4.0 9.0 0.00 0.00 0.00 19 930.9
20210622070507 74 18 5.0 9.0 0.00 0.00 0.00 19 930.9
20210622070127 74 18 5.0 9.0 0.00 0.00 0.00 19 930.9
20210622070052 74 14 3.0 8.0 0.00 0.00 0.00 19 930.9
20210622070024 74 18 5.0 9.0 0.00 0.00 0.00 19 930.9
20210622065606 74 14 3.0 8.0 0.00 0.00 0.00 19 930.9
20210622065549 75 13 4.0 8.0 0.00 0.00 0.00 19 930.9
20210622065524 74 14 3.0 8.0 0.00 0.00 0.00 19 930.9
20210622065106 75 13 4.0 8.0 0.00 0.00 0.00 19 930.9
20210622065024 75 13 4.0 8.0 0.00 0.00 0.00 19 930.9
20210622064916 76 20 4.0 8.0 0.00 0.00 0.00 18 930.8
20210622064547 76 20 4.0 8.0 0.00 0.00 0.00 18 930.8
20210622064445 76 20 4.0 8.0 0.00 0.00 0.00 18 930.8
20210622063958 76 7 3.0 8.0 0.00 0.00 0.00 18 930.8
20210622063946 76 19 4.0 8.0 0.00 0.00 0.00 18 930.8
20210622063445 76 7 3.0 8.0 0.00 0.00 0.00 18 930.8
20210622063027 77 15 3.0 7.0 0.00 0.00 0.00 18 930.8
20210622062531 77 15 3.0 7.0 0.00 0.00 0.00 18 930.8
20210622062445 77 15 3.0 7.0 0.00 0.00 0.00 18 930.8
20210622062051 77 13 3.0 7.0 0.00 0.00 0.00 18 930.8
20210622061946 77 13 3.0 7.0 0.00 0.00 0.00 18 930.8
20210622060835 78 6 4.0 7.0 0.00 0.00 0.00 18 930.6
20210622060533 78 6 4.0 7.0 0.00 0.00 0.00 18 930.6
20210622060510 79 18 2.0 7.0 0.00 0.00 0.00 18 930.6
20210622060445 78 6 4.0 7.0 0.00 0.00 0.00 18 930.6
20210622060044 79 18 2.0 7.0 0.00 0.00 0.00 18 930.6
20210622055945 79 18 2.0 7.0 0.00 0.00 0.00 18 930.6
20210622055434 81 16 4.0 7.0 0.00 0.00 0.00 17 930.6
20210622055021 81 16 4.0 7.0 0.00 0.00 0.00 17 930.6
20210622054945 81 16 4.0 7.0 0.00 0.00 0.00 17 930.6
20210622053936 82 0 0.0 3.0 0.00 0.00 0.00 17 930.7
20210622053557 82 0 0.0 3.0 0.00 0.00 0.00 17 930.7
20210622053446 82 0 0.0 3.0 0.00 0.00 0.00 17 930.7
20210622053011 82 0 0.0 5.0 0.00 0.00 0.00 16 930.6
20210622052945 82 0 0.0 4.0 0.00 0.00 0.00 16 930.7
20210622052627 82 353 1.0 5.0 0.00 0.00 0.00 17 930.6
20210622052446 82 0 0.0 5.0 0.00 0.00 0.00 16 930.6
20210622052048 82 353 1.0 5.0 0.00 0.00 0.00 17 930.6
20210622051947 82 13 2.0 5.0 0.00 0.00 0.00 16 930.6
20210622051945 82 353 1.0 5.0 0.00 0.00 0.00 17 930.6
20210622051608 82 12 1.0 5.0 0.00 0.00 0.00 16 930.6
20210622051546 82 13 2.0 5.0 0.00 0.00 0.00 16 930.6
20210622051445 82 13 2.0 5.0 0.00 0.00 0.00 16 930.6
20210622050945 82 12 1.0 5.0 0.00 0.00 0.00 16 930.6
20210622050445 83 22 2.0 5.0 0.00 0.00 0.00 16 930.5
20210622050047 83 12 3.0 5.0 0.00 0.00 0.00 16 930.5
20210622045945 83 12 3.0 5.0 0.00 0.00 0.00 16 930.5
20210622045445 84 0 0.0 3.0 0.00 0.00 0.00 15 930.5
20210622045040 85 0 0.0 2.0 0.00 0.00 0.00 15 930.4
20210622044230 85 0 0.0 2.0 0.00 0.00 0.00 15 930.4
20210622044127 85 0 0.0 2.0 0.00 0.00 0.00 15 930.4
20210622043626 85 0 0.0 2.0 0.00 0.00 0.00 15 930.4
20210622043620 85 0 0.0 2.0 0.00 0.00 0.00 15 930.3
20210622043312 85 0 0.0 3.0 0.00 0.00 0.00 15 930.2
20210622043127 85 0 0.0 2.0 0.00 0.00 0.00 15 930.3
20210622042721 85 0 0.0 2.0 0.00 0.00 0.00 15 930.3
20210622042626 85 0 0.0 2.0 0.00 0.00 0.00 15 930.3
20210622042219 85 0 0.0 3.0 0.00 0.00 0.00 15 930.2
20210622042131 85 0 0.0 3.0 0.00 0.00 0.00 15 930.2
20210622042129 86 261 1.0 2.0 0.00 0.00 0.00 14 930.0
20210622041627 86 0 0.0 3.0 0.00 0.00 0.00 14 930.1
20210622041550 86 0 0.0 0.0 0.00 0.00 0.00 14 929.9
20210622041129 86 261 1.0 2.0 0.00 0.00 0.00 14 930.0
20210622040705 86 0 0.0 0.0 0.00 0.00 0.00 14 929.9
20210622040627 86 0 0.0 0.0 0.00 0.00 0.00 14 929.9
20210622035626 86 0 0.0 3.0 0.00 0.00 0.00 14 929.9
20210622035543 88 0 0.0 0.0 0.00 0.00 0.00 13 929.8
20210622035100 89 0 0.0 0.0 0.00 0.00 0.00 13 929.7
20210622034626 88 0 0.0 0.0 0.00 0.00 0.00 13 929.8
20210622034454 89 0 0.0 0.0 0.00 0.00 0.00 13 929.6
20210622034216 89 0 0.0 0.0 0.00 0.00 0.00 13 929.7
20210622034127 89 0 0.0 0.0 0.00 0.00 0.00 13 929.7
20210622033940 89 0 0.0 0.0 0.00 0.00 0.00 13 929.5
20210622033720 89 0 0.0 0.0 0.00 0.00 0.00 13 929.6
20210622033626 89 0 0.0 0.0 0.00 0.00 0.00 13 929.6
20210622033222 89 0 0.0 0.0 0.00 0.00 0.00 13 929.5
20210622033127 89 0 0.0 0.0 0.00 0.00 0.00 13 929.5
20210622033026 90 0 0.0 2.0 0.00 0.00 0.00 12 929.5
20210622032723 90 0 0.0 0.0 0.00 0.00 0.00 12 929.5
20210622032626 90 0 0.0 0.0 0.00 0.00 0.00 12 929.5
20210622032215 90 0 0.0 2.0 0.00 0.00 0.00 12 929.5
20210622032126 90 0 0.0 2.0 0.00 0.00 0.00 12 929.5
20210622031708 90 0 0.0 2.0 0.00 0.00 0.00 12 929.4
20210622031629 90 0 0.0 2.0 0.00 0.00 0.00 12 929.4
20210622031112 91 0 0.0 2.0 0.00 0.00 0.00 12 929.3
20210622030937 92 0 0.0 2.0 0.00 0.00 0.00 11 929.2
20210622030652 91 0 0.0 1.0 0.00 0.00 0.00 11 929.3
20210622030611 91 0 0.0 1.0 0.00 0.00 0.00 11 929.3
20210622030206 92 0 0.0 2.0 0.00 0.00 0.00 11 929.2
20210622030112 92 0 0.0 2.0 0.00 0.00 0.00 11 929.2
20210622025410 94 0 0.0 6.0 0.00 0.00 0.00 10 929.1
20210622024710 94 0 0.0 6.0 0.00 0.00 0.00 10 929.1
20210622024612 94 0 0.0 6.0 0.00 0.00 0.00 10 929.1
20210622024209 95 273 1.0 6.0 0.00 0.00 0.00 10 929.0
20210622024112 95 273 1.0 6.0 0.00 0.00 0.00 10 929.0
20210622023754 96 244 4.0 10.0 0.00 0.00 0.00 9 928.9
20210622023716 95 249 2.0 8.0 0.00 0.00 0.00 10 929.0
20210622023612 95 249 2.0 8.0 0.00 0.00 0.00 10 929.0
20210622023217 96 244 4.0 10.0 0.00 0.00 0.00 9 928.9
20210622023112 96 244 4.0 10.0 0.00 0.00 0.00 9 928.9
20210622023055 97 242 5.0 12.0 0.00 0.00 0.00 9 928.9
20210622022655 97 242 5.0 12.0 0.00 0.00 0.00 9 928.9
20210622022611 97 242 5.0 12.0 0.00 0.00 0.00 9 928.9
20210622022112 97 253 3.0 12.0 0.00 0.00 0.00 9 928.9
20210622022003 97 254 6.0 13.0 0.00 0.00 0.00 9 928.8
20210622021659 97 254 6.0 13.0 0.00 0.00 0.00 9 928.8
20210622021612 97 254 6.0 13.0 0.00 0.00 0.00 9 928.8
20210622021605 98 257 4.0 13.0 0.00 0.00 0.00 9 928.8
20210622021215 98 257 4.0 13.0 0.00 0.00 0.00 9 928.8
20210622021113 98 257 4.0 13.0 0.00 0.00 0.00 9 928.8
20210622021008 98 254 4.0 10.0 0.00 0.00 0.00 9 928.7
20210622020711 98 254 4.0 10.0 0.00 0.00 0.00 9 928.7
20210622020612 98 254 4.0 10.0 0.00 0.00 0.00 9 928.7
20210622020542 99 236 5.0 11.0 0.00 0.00 0.00 9 928.7
20210622020112 99 236 5.0 11.0 0.00 0.00 0.00 9 928.7
20210622015613 99 238 5.0 11.0 0.00 0.00 0.00 8 928.7
20210622015214 100 227 3.0 8.0 0.00 0.00 0.00 8 928.6
20210622015112 100 227 3.0 8.0 0.00 0.00 0.00 8 928.6
20210622014717 100 226 5.0 11.0 0.00 0.00 0.00 8 928.5
20210622014234 100 226 5.0 11.0 0.00 0.00 0.00 8 928.5
20210622014157 100 247 4.0 13.0 0.00 0.00 0.00 8 928.4
20210622014114 100 247 4.0 13.0 0.00 0.00 0.00 8 928.4
20210622014112 100 226 5.0 11.0 0.00 0.00 0.00 8 928.5
20210622013729 100 247 4.0 13.0 0.00 0.00 0.00 8 928.4
20210622013612 100 247 4.0 13.0 0.00 0.00 0.00 8 928.4
20210622013557 100 265 6.0 15.0 0.00 0.00 0.00 7 928.4
20210622013214 100 265 6.0 15.0 0.00 0.00 0.00 7 928.4
20210622013112 100 265 6.0 15.0 0.00 0.00 0.00 7 928.4
20210622013057 101 283 10.0 15.0 0.00 0.00 0.00 7 928.3
20210622012707 101 283 10.0 15.0 0.00 0.00 0.00 7 928.3
20210622012612 101 283 10.0 15.0 0.00 0.00 0.00 7 928.3
20210622012542 101 268 7.0 12.0 0.00 0.00 0.00 7 928.3
20210622012215 101 268 7.0 12.0 0.00 0.00 0.00 7 928.3
20210622012112 101 268 7.0 12.0 0.00 0.00 0.00 7 928.3
20210622012014 102 271 7.0 11.0 0.00 0.00 0.00 7 928.1
20210622011710 102 231 5.0 11.0 0.00 0.00 0.00 7 928.2
20210622011704 102 271 7.0 11.0 0.00 0.00 0.00 7 928.1
20210622011613 102 271 7.0 11.0 0.00 0.00 0.00 7 928.1
20210622011254 102 231 5.0 11.0 0.00 0.00 0.00 7 928.2
20210622011113 102 231 5.0 11.0 0.00 0.00 0.00 7 928.2
20210622010755 102 261 3.0 13.0 0.00 0.00 0.00 7 928.1
20210622010153 102 261 3.0 13.0 0.00 0.00 0.00 7 928.1
20210622010112 102 261 3.0 13.0 0.00 0.00 0.00 7 928.1
20210622005612 103 265 5.0 13.0 0.00 0.00 0.00 6 928.1
20210622005202 103 265 5.0 13.0 0.00 0.00 0.00 6 928.1
20210622005111 103 265 5.0 13.0 0.00 0.00 0.00 6 928.1
20210622005024 103 248 5.0 13.0 0.00 0.00 0.00 7 928.1
20210622004648 103 248 5.0 13.0 0.00 0.00 0.00 7 928.1
20210622004611 103 248 5.0 13.0 0.00 0.00 0.00 7 928.1
20210622004435 103 259 4.0 12.0 0.00 0.00 0.00 7 928.1
20210622004242 103 259 4.0 12.0 0.00 0.00 0.00 7 928.1
20210622004112 103 259 4.0 12.0 0.00 0.00 0.00 7 928.1
20210622004009 103 245 2.0 15.0 0.00 0.00 0.00 7 928.1
20210622003656 103 245 2.0 15.0 0.00 0.00 0.00 7 928.1
20210622003611 103 245 2.0 15.0 0.00 0.00 0.00 7 928.1
20210622003148 103 281 7.0 15.0 0.00 0.00 0.00 7 928.1
20210622003111 103 281 7.0 15.0 0.00 0.00 0.00 7 928.1
20210622002655 103 271 5.0 11.0 0.00 0.00 0.00 7 928.1
20210622002651 103 217 7.0 14.0 0.00 0.00 0.00 7 928.1
20210622002611 103 271 5.0 11.0 0.00 0.00 0.00 7 928.1
20210622002153 103 217 7.0 14.0 0.00 0.00 0.00 7 928.1
20210622002111 103 217 7.0 14.0 0.00 0.00 0.00 7 928.1
20210622001949 103 215 5.0 15.0 0.00 0.00 0.00 7 928.2
20210622001611 103 215 5.0 15.0 0.00 0.00 0.00 7 928.2
20210622001011 104 243 7.0 14.0 0.00 0.00 0.00 7 928.2
20210622000652 104 243 7.0 14.0 0.00 0.00 0.00 7 928.2
20210622000611 104 243 7.0 14.0 0.00 0.00 0.00 7 928.2
20210622000435 104 273 5.0 12.0 0.00 0.00 0.00 6 928.2
20210622000144 104 273 5.0 12.0 0.00 0.00 0.00 6 928.2
20210622000111 104 273 5.0 12.0 0.00 0.00 0.00 6 928.2
20210621235729 104 257 5.0 14.0 0.00 0.00 0.00 6 928.3
20210621235306 104 257 5.0 14.0 0.00 0.00 0.00 6 928.3
20210621235036 104 251 8.0 16.0 0.00 0.00 0.00 6 928.3
20210621234845 104 251 8.0 16.0 0.00 0.00 0.00 6 928.3
20210621234806 104 251 8.0 16.0 0.00 0.00 0.00 6 928.3
20210621234725 104 243 8.0 16.0 0.00 0.00 0.00 7 928.4
20210621234307 104 243 8.0 16.0 0.00 0.00 0.00 7 928.4
20210621234010 105 222 8.0 16.0 0.00 0.00 0.00 7 928.3
20210621233838 104 240 5.0 14.0 0.00 0.00 0.00 7 928.4
20210621233806 104 240 5.0 14.0 0.00 0.00 0.00 7 928.4
20210621233401 105 222 8.0 16.0 0.00 0.00 0.00 7 928.3
20210621233307 105 222 8.0 16.0 0.00 0.00 0.00 7 928.3
20210621233246 105 247 8.0 16.0 0.00 0.00 0.00 7 928.3
20210621232847 105 247 8.0 16.0 0.00 0.00 0.00 7 928.3
20210621232806 105 247 8.0 16.0 0.00 0.00 0.00 7 928.3
20210621232639 105 230 7.0 11.0 0.00 0.00 0.00 7 928.4
20210621232307 105 218 6.0 15.0 0.00 0.00 0.00 7 928.3
20210621231806 105 230 7.0 11.0 0.00 0.00 0.00 7 928.4
20210621231801 105 279 6.0 11.0 0.00 0.00 0.00 7 928.4
20210621231344 105 279 6.0 11.0 0.00 0.00 0.00 7 928.4
20210621231306 105 279 6.0 11.0 0.00 0.00 0.00 7 928.4
20210621230844 104 231 5.0 13.0 0.00 0.00 0.00 7 928.3
20210621230806 104 231 5.0 13.0 0.00 0.00 0.00 7 928.3
20210621230401 105 200 5.0 15.0 0.00 0.00 0.00 7 928.5
20210621230307 105 200 5.0 15.0 0.00 0.00 0.00 7 928.5
20210621230204 104 231 6.0 15.0 0.00 0.00 0.00 7 928.6
20210621225849 104 231 6.0 15.0 0.00 0.00 0.00 7 928.6
20210621225806 104 231 6.0 15.0 0.00 0.00 0.00 7 928.6
20210621225717 105 220 7.0 20.0 0.00 0.00 0.00 7 928.6
20210621225339 105 220 7.0 20.0 0.00 0.00 0.00 7 928.6
20210621225309 105 222 9.0 24.0 0.00 0.00 0.00 7 928.6
20210621225306 105 220 7.0 20.0 0.00 0.00 0.00 7 928.6
20210621224842 105 222 9.0 24.0 0.00 0.00 0.00 7 928.6
20210621224806 105 222 9.0 24.0 0.00 0.00 0.00 7 928.6
20210621224724 105 265 6.0 24.0 0.00 0.00 0.00 7 928.6
20210621224400 105 265 6.0 24.0 0.00 0.00 0.00 7 928.6
20210621224306 105 265 6.0 24.0 0.00 0.00 0.00 7 928.6
20210621223807 104 245 3.0 17.0 0.00 0.00 0.00 7 928.7
20210621223407 104 268 11.0 17.0 0.00 0.00 0.00 7 928.7
20210621223307 104 268 11.0 17.0 0.00 0.00 0.00 7 928.7
20210621222641 105 245 7.0 14.0 0.00 0.00 0.00 7 928.8
20210621222526 105 250 7.0 17.0 0.00 0.00 0.00 6 928.9
20210621222438 105 250 7.0 17.0 0.00 0.00 0.00 6 928.9
20210621222140 105 250 7.0 17.0 0.00 0.00 0.00 6 928.9
20210621221933 105 282 6.0 17.0 0.00 0.00 0.00 6 928.8
20210621221722 105 282 6.0 17.0 0.00 0.00 0.00 6 928.8
20210621221640 105 282 6.0 17.0 0.00 0.00 0.00 6 928.8
20210621221513 105 238 5.0 15.0 0.00 0.00 0.00 6 928.8
20210621221221 105 238 5.0 15.0 0.00 0.00 0.00 6 928.8
20210621221139 105 238 5.0 15.0 0.00 0.00 0.00 6 928.8
20210621220936 105 215 8.0 14.0 0.00 0.00 0.00 6 928.7
20210621220725 105 215 8.0 14.0 0.00 0.00 0.00 6 928.7
20210621220640 105 215 8.0 14.0 0.00 0.00 0.00 6 928.7
20210621220140 106 211 5.0 13.0 0.00 0.00 0.00 6 928.9
20210621215945 106 222 5.0 14.0 0.00 0.00 0.00 6 929.0
20210621215722 106 222 5.0 14.0 0.00 0.00 0.00 6 929.0
20210621215639 106 222 5.0 14.0 0.00 0.00 0.00 6 929.0
20210621215141 105 213 6.0 16.0 0.00 0.00 0.00 6 929.0
20210621214431 106 218 10.0 17.0 0.00 0.00 0.00 6 929.0
20210621214230 106 218 10.0 17.0 0.00 0.00 0.00 6 929.0
20210621214139 106 218 10.0 17.0 0.00 0.00 0.00 6 929.0
20210621213847 106 244 7.0 16.0 0.00 0.00 0.00 6 929.1
20210621213739 106 244 7.0 16.0 0.00 0.00 0.00 6 929.1
20210621213641 106 244 7.0 16.0 0.00 0.00 0.00 6 929.1
20210621213456 106 283 8.0 16.0 0.00 0.00 0.00 6 929.2
20210621213236 106 283 8.0 16.0 0.00 0.00 0.00 6 929.2
20210621213140 106 283 8.0 16.0 0.00 0.00 0.00 6 929.2
20210621213024 105 209 7.0 15.0 0.00 0.00 0.00 6 929.2
20210621212756 105 209 7.0 15.0 0.00 0.00 0.00 6 929.2
20210621212640 105 209 7.0 15.0 0.00 0.00 0.00 6 929.2
20210621212502 105 272 6.0 13.0 0.00 0.00 0.00 6 929.4
20210621212236 105 272 6.0 13.0 0.00 0.00 0.00 6 929.4
20210621212140 105 272 6.0 13.0 0.00 0.00 0.00 6 929.4
20210621211855 105 200 4.0 14.0 0.00 0.00 0.00 7 929.4
20210621211640 105 200 4.0 14.0 0.00 0.00 0.00 7 929.4
20210621211635 105 252 6.0 14.0 0.00 0.00 0.00 6 929.5
20210621211237 105 252 6.0 14.0 0.00 0.00 0.00 6 929.5
20210621211140 105 252 6.0 14.0 0.00 0.00 0.00 6 929.5
20210621210727 105 240 8.0 14.0 0.00 0.00 0.00 7 929.5
20210621210641 105 240 8.0 14.0 0.00 0.00 0.00 7 929.5
20210621210140 104 307 3.0 12.0 0.00 0.00 0.00 8 929.5
20210621205726 105 268 8.0 16.0 0.00 0.00 0.00 7 929.6
20210621205640 105 268 8.0 16.0 0.00 0.00 0.00 7 929.6
20210621205228 104 277 6.0 16.0 0.00 0.00 0.00 7 929.7
20210621205139 104 277 6.0 16.0 0.00 0.00 0.00 7 929.7
20210621204640 105 241 9.0 16.0 0.00 0.00 0.00 8 929.7
20210621203140 104 163 6.0 16.0 0.00 0.00 0.00 12 929.7
20210621202521 104 227 6.0 14.0 0.00 0.00 0.00 11 929.9
20210621202141 104 227 6.0 14.0 0.00 0.00 0.00 11 929.9
20210621201639 104 195 7.0 14.0 0.00 0.00 0.00 11 929.9
20210621201251 103 285 5.0 12.0 0.00 0.00 0.00 8 930.0
20210621201140 103 285 5.0 12.0 0.00 0.00 0.00 8 930.0
20210621200140 102 206 1.0 11.0 0.00 0.00 0.00 12 930.0
20210621195725 102 203 3.0 10.0 0.00 0.00 0.00 12 930.1
20210621195641 102 203 3.0 10.0 0.00 0.00 0.00 12 930.1
20210621195140 102 288 3.0 10.0 0.00 0.00 0.00 13 930.2
20210621194640 101 328 5.0 10.0 0.00 0.00 0.00 13 930.2
20210621194321 101 329 6.0 11.0 0.00 0.00 0.00 15 930.3
20210621194243 100 351 3.0 11.0 0.00 0.00 0.00 15 930.2
20210621194142 100 351 3.0 11.0 0.00 0.00 0.00 15 930.2
20210621193725 101 329 6.0 11.0 0.00 0.00 0.00 15 930.3
20210621193640 101 329 6.0 11.0 0.00 0.00 0.00 15 930.3
20210621193225 101 302 1.0 7.0 0.00 0.00 0.00 15 930.5
20210621193140 101 302 1.0 7.0 0.00 0.00 0.00 15 930.5
20210621192640 101 282 2.0 8.0 0.00 0.00 0.00 15 930.5
20210621192612 100 17 2.0 8.0 0.00 0.00 0.00 15 930.5
20210621192225 100 17 2.0 8.0 0.00 0.00 0.00 15 930.5
20210621192139 100 17 2.0 8.0 0.00 0.00 0.00 15 930.5
20210621191317 99 49 2.0 7.0 0.00 0.00 0.00 16 930.7
20210621190855 99 122 1.0 12.0 0.00 0.00 0.00 16 930.8
20210621190818 99 122 1.0 12.0 0.00 0.00 0.00 16 930.8
20210621190428 99 98 1.0 12.0 0.00 0.00 0.00 16 930.8
20210621190319 99 98 1.0 12.0 0.00 0.00 0.00 16 930.8
20210621185818 98 73 2.0 7.0 0.00 0.00 0.00 17 930.8
20210621184528 98 74 3.0 13.0 0.00 0.00 0.00 18 931.1
20210621183607 97 29 3.0 5.0 0.00 0.00 0.00 18 931.3
20210621183529 97 29 3.0 5.0 0.00 0.00 0.00 18 931.3
20210621182720 97 111 2.0 8.0 0.00 0.00 0.00 18 931.4
20210621181802 97 160 2.0 8.0 0.00 0.00 0.00 19 931.6
20210621181721 97 160 2.0 8.0 0.00 0.00 0.00 19 931.6
20210621180754 96 180 1.0 8.0 0.00 0.00 0.00 19 931.7
20210621180720 96 180 1.0 8.0 0.00 0.00 0.00 19 931.7
20210621175255 94 170 3.0 7.0 0.00 0.00 0.00 23 931.9
20210621175221 94 170 3.0 7.0 0.00 0.00 0.00 23 931.9
20210621174544 94 108 3.0 9.0 0.00 0.00 0.00 23 932.1
20210621174454 94 117 3.0 10.0 0.00 0.00 0.00 22 932.0
20210621174401 94 117 3.0 10.0 0.00 0.00 0.00 22 932.0
20210621173949 94 108 3.0 9.0 0.00 0.00 0.00 23 932.1
20210621173901 94 108 3.0 9.0 0.00 0.00 0.00 23 932.1
20210621173336 93 0 0.0 9.0 0.00 0.00 0.00 23 932.1
20210621173009 93 172 4.0 11.0 0.00 0.00 0.00 23 932.2
20210621172950 93 0 0.0 9.0 0.00 0.00 0.00 23 932.1
20210621172900 93 0 0.0 9.0 0.00 0.00 0.00 23 932.1
20210621172401 93 172 4.0 11.0 0.00 0.00 0.00 23 932.2
20210621172015 93 137 4.0 14.0 0.00 0.00 0.00 25 932.2
20210621171444 93 137 4.0 14.0 0.00 0.00 0.00 25 932.2
20210621171402 93 137 4.0 14.0 0.00 0.00 0.00 25 932.2
20210621170853 92 168 6.0 11.0 0.00 0.00 0.00 25 932.2
20210621170401 92 168 6.0 11.0 0.00 0.00 0.00 25 932.2
20210621165458 91 169 4.0 10.0 0.00 0.00 0.00 27 932.4
20210621165426 91 153 4.0 10.0 0.00 0.00 0.00 27 932.3
20210621165359 91 169 4.0 10.0 0.00 0.00 0.00 27 932.4
20210621164925 91 147 3.0 10.0 0.00 0.00 0.00 28 932.4
20210621164900 91 153 4.0 10.0 0.00 0.00 0.00 27 932.3
20210621164437 91 147 3.0 10.0 0.00 0.00 0.00 28 932.4
20210621164400 91 147 3.0 10.0 0.00 0.00 0.00 28 932.4
20210621163400 90 132 3.0 9.0 0.00 0.00 0.00 28 932.4
20210621162952 90 167 2.0 8.0 0.00 0.00 0.00 28 932.6
20210621162944 90 171 4.0 9.0 0.00 0.00 0.00 28 932.5
20210621162859 90 171 4.0 9.0 0.00 0.00 0.00 28 932.5
20210621162440 90 167 2.0 8.0 0.00 0.00 0.00 28 932.6
20210621162359 90 167 2.0 8.0 0.00 0.00 0.00 28 932.6
20210621162253 90 195 4.0 12.0 0.00 0.00 0.00 28 932.6
20210621161941 90 195 4.0 12.0 0.00 0.00 0.00 28 932.6
20210621161859 90 195 4.0 12.0 0.00 0.00 0.00 28 932.6
20210621161806 89 161 5.0 12.0 0.00 0.00 0.00 28 932.7
20210621161431 89 161 5.0 12.0 0.00 0.00 0.00 28 932.7
20210621161400 89 161 5.0 12.0 0.00 0.00 0.00 28 932.7
20210621160902 89 178 3.0 9.0 0.00 0.00 0.00 28 932.7
20210621160400 89 165 5.0 9.0 0.00 0.00 0.00 29 932.6
20210621155900 89 182 5.0 9.0 0.00 0.00 0.00 29 932.7
20210621154731 87 185 2.0 9.0 0.00 0.00 0.00 30 932.8
20210621154432 87 185 2.0 9.0 0.00 0.00 0.00 30 932.8
20210621154359 87 185 2.0 9.0 0.00 0.00 0.00 30 932.8
20210621154203 87 164 3.0 7.0 0.00 0.00 0.00 30 932.9
20210621153946 87 164 3.0 7.0 0.00 0.00 0.00 30 932.9
20210621153859 87 164 3.0 7.0 0.00 0.00 0.00 30 932.9
20210621153750 87 164 1.0 7.0 0.00 0.00 0.00 31 932.8
20210621153455 87 164 1.0 7.0 0.00 0.00 0.00 31 932.8
20210621153400 87 164 1.0 7.0 0.00 0.00 0.00 31 932.8
20210621153350 86 198 3.0 7.0 0.00 0.00 0.00 32 932.9
20210621152935 86 198 3.0 7.0 0.00 0.00 0.00 32 932.9
20210621152900 86 198 3.0 7.0 0.00 0.00 0.00 32 932.9
20210621152607 85 167 4.0 10.0 0.00 0.00 0.00 32 932.9
20210621152233 85 167 4.0 10.0 0.00 0.00 0.00 32 932.9
20210621152141 85 167 4.0 10.0 0.00 0.00 0.00 32 932.9
20210621152053 85 170 3.0 8.0 0.00 0.00 0.00 32 932.8
20210621151715 85 170 3.0 8.0 0.00 0.00 0.00 32 932.8
20210621151643 84 180 3.0 8.0 0.00 0.00 0.00 32 932.9
20210621151641 85 170 3.0 8.0 0.00 0.00 0.00 32 932.8
20210621151225 84 180 3.0 8.0 0.00 0.00 0.00 32 932.9
20210621151141 84 180 3.0 8.0 0.00 0.00 0.00 32 932.9
20210621151042 84 165 3.0 8.0 0.00 0.00 0.00 32 932.9
20210621150730 84 165 3.0 8.0 0.00 0.00 0.00 32 932.9
20210621150641 84 165 3.0 8.0 0.00 0.00 0.00 32 932.9
20210621150451 83 158 3.0 8.0 0.00 0.00 0.00 30 932.8
20210621150220 83 158 3.0 8.0 0.00 0.00 0.00 30 932.8
20210621150141 83 158 3.0 8.0 0.00 0.00 0.00 30 932.8
20210621150124 83 167 4.0 7.0 0.00 0.00 0.00 30 932.8
20210621145736 83 167 4.0 7.0 0.00 0.00 0.00 30 932.8
20210621145642 83 167 4.0 7.0 0.00 0.00 0.00 30 932.8
20210621145433 83 173 3.0 7.0 0.00 0.00 0.00 29 932.8
20210621145215 83 173 3.0 7.0 0.00 0.00 0.00 29 932.8